Content
SEND FEEDBACK

Daily
Averages
Monthly
Summary
United States of America

FORT VALLEY, GEORGIA


Home > North America > United States > Georgia
Elevation: 53 feet     Latitude: 32 33N     Longitude: 083 53W

WEATHER
 
SELECT A DAY
Number of Records: 207,881;   Date Range: 1/1/95 - 4/23/14
 
SHARE

PRINT THIS DATA

[ ← Previous Day ]
WEATHER ALMANAC - FEBRUARY 13, 2013
[ Next Day → ]
[ °C ]   °F
Weather ElementAverageHighLow
Temperature49.7 °F59 °F (10:53 am) (11:53 am)
Dewpoint47.5 °F55.4 °F (9:50 am) (7:00 pm)
Humidity92.5 %100 % (1:53 am)67 % (12:53 pm)
Barometer29.82 in29.96 in (10:53 pm)29.76 in (4:41 am)
Wind Speed6.1 mph15 mph (12:53 pm)
Wind Gust24.2 mph (10:53 am)
Weather ElementAverage
Visibility6.1 mi
Wind DirectionS (177.6 °)

Weather ElementTotal
Precipitation0.21 in
Heating Degree Days35.5 (Base 65)
Averaged from 37 records on February 13, 2013
WEATHER CONDITIONS BREAKOUT
WIND DIRECTION BREAKOUT
WEATHER BY HOUR - FEBRUARY 13, 2013
[ °C ]   °F
Local TimeTemperatureDewpointHumidityBarometerVisibilityWind DirectionWind SpeedGust SpeedPrecipitationEventsConditions
1:53 AM50.0 °F50.0 °F100 %29.80 in5.0 miNE (50°)6.9 mph0.01 inRainLight Rain
2:53 AM50.0 °F50.0 °F100 %29.79 in10.0 miEast (90°)4.6 mph0.01 inOvercast
3:53 AM50.0 °F50.0 °F100 %29.78 in7.0 miNNE (30°)3.5 mphOvercast
4:41 AM50.0 °F50.0 °F100 %29.76 in3.0 miCalm0.00 inRainLight Rain
4:53 AM50.0 °F50.0 °F100 %29.76 in3.0 miCalm0.00 inOvercast
5:53 AM50.0 °F50.0 °F100 %29.77 in2.5 miCalmOvercast
6:07 AM50.0 °F48.2 °F94 %29.78 in1.8 miNorth (10°)4.6 mphOvercast
6:17 AM48.2 °F48.2 °F100 %29.80 in2.0 miNNW (340°)3.5 mphOvercast
6:53 AM48.9 °F48.9 °F100 %29.79 in1.8 miCalmOvercast
7:01 AM48.2 °F48.2 °F100 %29.79 in2.0 miCalm0.01 inOvercast
7:15 AM48.2 °F48.2 °F100 %29.80 in3.0 miCalm0.01 inOvercast
7:34 AM48.2 °F48.2 °F100 %29.79 in1.8 miESE (120°)3.5 mph0.01 inOvercast
7:53 AM50.0 °F50.0 °F100 %29.78 in1.0 miCalm0.01 inOvercast
8:53 AM51.8 °F51.8 °F100 %29.82 in0.8 miCalmOvercast
9:00 AM51.8 °F51.8 °F100 %29.81 in1.0 miCalmOvercast
9:27 AM55.4 °F53.6 °F94 %29.82 in8.0 miWest (260°)11.5 mph17.3 mphOvercast
9:50 AM57.2 °F55.4 °F94 %29.81 in10.0 miWSW (250°)10.4 mph18.4 mphMostly Cloudy
9:53 AM57.0 °F55.0 °F93 %29.81 in10.0 miWSW (250°)10.4 mph18.4 mphMostly Cloudy
10:07 AM57.2 °F55.4 °F94 %29.79 in10.0 miWSW (240°)10.4 mphScattered Clouds
10:53 AM59.0 °F51.1 °F75 %29.80 in10.0 miWSW (250°)10.4 mph24.2 mphScattered Clouds
11:53 AM0.0 °F0.0 °F29.81 in10.0 miWest (270°)13.8 mph20.7 mphScattered Clouds
12:53 PM57.9 °F46.9 °F67 %29.82 inWNW (290°)15.0 mph
1:53 PM57.0 °F46.9 °F69 %29.82 in10.0 miWest (270°)15.0 mph19.6 mphScattered Clouds
2:53 PM54.0 °F48.0 °F80 %29.81 in3.0 miWest (270°)11.5 mph0.00 inHaze
3:12 PM53.6 °F48.2 °F82 %29.81 in3.0 miWest (260°)11.5 mph0.00 inRainRain
3:30 PM51.8 °F50.0 °F94 %29.78 in4.0 miWSW (240°)5.8 mph0.02 inRainLight Rain
3:40 PM51.8 °F50.0 °F94 %29.82 in3.0 miWNW (290°)6.9 mph0.04 inRainRain
3:53 PM51.1 °F50.0 °F96 %29.81 in7.0 miWNW (290°)5.8 mph0.05 inRainLight Rain
4:00 PM51.8 °F50.0 °F94 %29.82 in7.0 miWest (260°)8.1 mph0.00 inRainLight Rain
4:53 PM50.0 °F48.0 °F93 %29.83 in10.0 miWest (270°)9.2 mph21.9 mph0.04 inOvercast
5:53 PM48.9 °F46.9 °F93 %29.85 in10.0 miWest (280°)9.2 mphPartly Cloudy
6:53 PM48.9 °F46.0 °F90 %29.88 in10.0 miWest (260°)6.9 mphClear
7:53 PM48.0 °F46.0 °F93 %29.90 in10.0 miWest (280°)5.8 mphScattered Clouds
8:53 PM46.9 °F44.1 °F90 %29.92 in10.0 miWest (270°)4.6 mphClear
9:53 PM46.9 °F43.0 °F86 %29.94 in10.0 miWest (270°)6.9 mphOvercast
10:53 PM46.0 °F43.0 °F89 %29.96 in10.0 miWest (280°)4.6 mphClear
11:53 PM45.0 °F37.9 °F76 %29.95 in10.0 miNNW (330°)6.9 mphClear
Hourly data recorded from KMCN, located 17.22 miles away from Fort Valley, Georgia







STORIES FROM OUR PARTNERS